map of RKT home
RKT - Airport
Location
City:  Ras Al Khaimah, Ras al-Khaimah, United Arab Emirates
Name:Ras Al Khaimah International Airport
ICAO:OMRK
IATA:RKT

Details
Type:Airport (Aerodrome, Airfield)
Use:Public/Civil, International (customs port of entry)
Latitude:2536'49"N (25.613483)
Longitude:5556'20"E (55.938817)
Datum:WGS 1984
Elevation:102 ft (31 m)
Variation:2.08E (WMM2015 magnetic declination)
0.05 annual change
Runways:1
Longest:12336 × 148 ft (3760 × 45 m), paved

Time
Time Zone:UTC+4
Local Time:

Weather
METAR:OMRK 190000Z 18008KT 7000 NSC 32/26 Q0997 A2946
TAF:OMRK 182256Z 1900/2006 18007KT 8000 NSC
BECMG 1909/1911 30014KT
BECMG 1915/1917 16005KT

Related Locations
Nearby:
Farthest:GMR: 11742 mi / 18897 km
Mangareva [Totegegie], Gambier Islands, PF

Find:

   beyond  
but within

Other Information
Maps:
NOTAMs:
Links:
Sources:

  
  • flag of United Arab Emirates
  • flag of Ras al-Khaimah
  

Sectional Chart

Flight Planning
at skyvector.com

Satellite Image

Google Maps Satellite view

 

Copyright © 2004-2018 Karl L. Swartz. All rights reserved.
The Great Circle Mapper name and logo are trademarks of the Great Circle Mapper.
All other trademarks mentioned herein belong to their respective owners.
Please see credits for attibutions and further copyright information.

  Follow gcmap on Facebook Follow gcmap on Twitter Follow gcmap on Google+ GCmap on LinkedIn

hCard Microformat

Geo Microformat